Time,TemperatureF,DewpointF,PressureIn,WindDirection,WindDirectionDegrees,WindSpeedMPH,WindSpeedGustMPH,Humidity,HourlyPrecipIn,Conditions,Clouds,dailyrainin,SolarRadiationWatts/m^2,SoftwareType,DateUTC
2013-07-10 00:01:00,56.4,51.6,29.94,NE,38,0.0,0.0,84,0.00,,,0.00,0.0,WeatherDisplay:10.37,2013-07-10 07:01:00,
2013-07-10 00:06:00,56.2,51.7,29.94,NE,38,0.0,0.0,85,0.00,,,0.00,0.0,WeatherDisplay:10.37,2013-07-10 07:06:00,
2013-07-10 00:11:00,56.1,51.7,29.94,NE,38,0.0,0.0,85,0.00,,,0.00,0.0,WeatherDisplay:10.37,2013-07-10 07:11:00,
2013-07-10 00:16:00,56.0,51.6,29.95,NE,38,0.0,0.0,85,0.00,,,0.00,0.0,WeatherDisplay:10.37,2013-07-10 07:16:00,
2013-07-10 00:21:00,55.8,51.4,29.95,NE,38,0.0,0.0,85,0.00,,,0.00,0.0,WeatherDisplay:10.37,2013-07-10 07:21:00,
2013-07-10 00:26:00,55.7,51.6,29.95,NE,38,0.0,0.0,86,0.00,,,0.00,0.0,WeatherDisplay:10.37,2013-07-10 07:26:00,
2013-07-10 00:31:00,55.5,51.4,29.95,NE,38,0.0,1.2,86,0.00,,,0.00,0.0,WeatherDisplay:10.37,2013-07-10 07:31:00,
2013-07-10 00:36:00,55.3,51.2,29.95,NE,38,0.0,0.0,86,0.00,,,0.00,0.0,WeatherDisplay:10.37,2013-07-10 07:36:00,
2013-07-10 00:41:00,55.1,51.0,29.95,NE,38,0.0,0.0,86,0.00,,,0.00,0.0,WeatherDisplay:10.37,2013-07-10 07:41:00,
2013-07-10 00:46:00,55.0,50.9,29.95,NE,38,0.0,0.0,86,0.00,,,0.00,0.0,WeatherDisplay:10.37,2013-07-10 07:46:00,
2013-07-10 00:51:00,54.8,50.7,29.95,NE,38,0.0,0.0,86,0.00,,,0.00,0.0,WeatherDisplay:10.37,2013-07-10 07:51:00,
2013-07-10 00:56:00,54.6,50.5,29.95,NE,38,0.0,0.0,86,0.00,,,0.00,0.0,WeatherDisplay:10.37,2013-07-10 07:56:00,
2013-07-10 01:01:00,54.5,50.7,29.95,NE,38,0.0,0.0,87,0.00,,,0.00,0.0,WeatherDisplay:10.37,2013-07-10 08:01:00,
2013-07-10 01:06:00,54.4,50.6,29.95,NE,38,0.0,0.0,87,0.00,,,0.00,0.0,WeatherDisplay:10.37,2013-07-10 08:06:00,
2013-07-10 01:11:00,54.3,50.5,29.95,NE,38,0.0,0.0,87,0.00,,,0.00,0.0,WeatherDisplay:10.37,2013-07-10 08:11:00,
2013-07-10 01:16:00,54.4,50.9,29.95,NE,38,0.0,0.0,88,0.00,,,0.00,0.0,WeatherDisplay:10.37,2013-07-10 08:16:00,
2013-07-10 01:21:00,54.4,50.9,29.94,NE,38,0.0,0.0,88,0.00,,,0.00,0.0,WeatherDisplay:10.37,2013-07-10 08:21:00,
2013-07-10 01:26:00,54.3,50.8,29.94,NE,38,0.0,0.0,88,0.00,,,0.00,0.0,WeatherDisplay:10.37,2013-07-10 08:26:00,
2013-07-10 01:31:00,54.2,50.7,29.94,NE,38,0.0,0.0,88,0.00,,,0.00,0.0,WeatherDisplay:10.37,2013-07-10 08:31:00,
2013-07-10 01:36:00,54.0,50.5,29.94,NE,38,0.0,0.0,88,0.00,,,0.00,0.0,WeatherDisplay:10.37,2013-07-10 08:36:00,
2013-07-10 01:41:00,54.0,50.5,29.94,NE,38,0.0,0.0,88,0.00,,,0.00,0.0,WeatherDisplay:10.37,2013-07-10 08:41:00,
2013-07-10 01:46:00,53.9,50.4,29.94,NE,38,0.0,0.0,88,0.00,,,0.00,0.0,WeatherDisplay:10.37,2013-07-10 08:46:00,
2013-07-10 01:51:00,53.8,50.3,29.94,NE,38,0.0,0.0,88,0.00,,,0.00,0.0,WeatherDisplay:10.37,2013-07-10 08:51:00,
2013-07-10 01:56:00,53.7,50.2,29.94,NE,38,0.0,0.0,88,0.00,,,0.00,0.0,WeatherDisplay:10.37,2013-07-10 08:56:00,
2013-07-10 02:01:00,53.6,50.1,29.94,NE,38,0.0,0.0,88,0.00,,,0.00,0.0,WeatherDisplay:10.37,2013-07-10 09:01:00,
2013-07-10 02:06:00,53.4,50.2,29.94,NE,38,0.0,0.0,89,0.00,,,0.00,0.0,WeatherDisplay:10.37,2013-07-10 09:06:00,
2013-07-10 02:11:00,53.4,50.2,29.94,NE,38,0.0,0.0,89,0.00,,,0.00,0.0,WeatherDisplay:10.37,2013-07-10 09:11:00,
2013-07-10 02:16:00,53.3,50.1,29.94,NE,38,0.0,0.0,89,0.00,,,0.00,0.0,WeatherDisplay:10.37,2013-07-10 09:16:00,
2013-07-10 02:21:00,53.3,50.1,29.94,NE,38,0.0,0.0,89,0.00,,,0.00,0.0,WeatherDisplay:10.37,2013-07-10 09:21:00,
2013-07-10 02:26:00,53.3,50.4,29.94,NE,38,0.0,0.0,90,0.00,,,0.00,0.0,WeatherDisplay:10.37,2013-07-10 09:26:00,
2013-07-10 02:31:00,53.3,50.1,29.94,NE,38,0.0,0.0,89,0.00,,,0.00,0.0,WeatherDisplay:10.37,2013-07-10 09:31:00,
2013-07-10 02:36:00,53.1,50.2,29.94,NE,38,0.0,0.0,90,0.00,,,0.00,0.0,WeatherDisplay:10.37,2013-07-10 09:36:00,
2013-07-10 02:41:00,52.9,50.0,29.94,NE,38,0.0,0.0,90,0.00,,,0.00,0.0,WeatherDisplay:10.37,2013-07-10 09:41:00,
2013-07-10 02:46:00,52.7,49.8,29.94,NE,38,0.0,0.0,90,0.00,,,0.00,0.0,WeatherDisplay:10.37,2013-07-10 09:46:00,
2013-07-10 02:51:00,52.6,49.8,29.94,NE,38,0.0,0.0,90,0.00,,,0.00,0.0,WeatherDisplay:10.37,2013-07-10 09:51:00,
2013-07-10 02:56:00,52.5,49.7,29.94,NE,38,0.0,0.0,90,0.00,,,0.00,0.0,WeatherDisplay:10.37,2013-07-10 09:56:00,
2013-07-10 03:01:00,52.4,49.6,29.94,NE,38,0.0,0.0,90,0.00,,,0.00,0.0,WeatherDisplay:10.37,2013-07-10 10:01:00,
2013-07-10 03:06:00,52.4,49.6,29.94,NE,38,0.0,0.0,90,0.00,,,0.00,0.0,WeatherDisplay:10.37,2013-07-10 10:06:00,
2013-07-10 03:11:00,52.3,49.5,29.94,NE,38,0.0,0.0,90,0.00,,,0.00,0.0,WeatherDisplay:10.37,2013-07-10 10:11:00,
2013-07-10 03:16:00,52.2,49.4,29.94,NE,38,0.0,0.0,90,0.00,,,0.00,0.0,WeatherDisplay:10.37,2013-07-10 10:16:00,
2013-07-10 03:21:00,52.1,49.3,29.93,NE,38,0.0,0.0,90,0.00,,,0.00,0.0,WeatherDisplay:10.37,2013-07-10 10:21:00,
2013-07-10 03:26:00,52.1,49.6,29.93,NE,38,0.0,0.0,91,0.00,,,0.00,0.0,WeatherDisplay:10.37,2013-07-10 10:26:00,
2013-07-10 03:31:00,52.2,49.4,29.94,NE,38,0.0,0.0,90,0.00,,,0.00,0.0,WeatherDisplay:10.37,2013-07-10 10:31:00,
2013-07-10 03:36:00,52.3,49.8,29.93,NE,38,0.0,0.0,91,0.00,,,0.00,0.0,WeatherDisplay:10.37,2013-07-10 10:36:00,
2013-07-10 03:41:00,52.1,49.3,29.94,NE,38,0.0,0.0,90,0.00,,,0.00,0.0,WeatherDisplay:10.37,2013-07-10 10:41:00,
2013-07-10 03:46:00,52.0,49.5,29.93,NE,38,0.0,0.0,91,0.00,,,0.00,0.0,WeatherDisplay:10.37,2013-07-10 10:46:00,
2013-07-10 03:51:00,52.0,49.5,29.93,NE,38,0.0,0.0,91,0.00,,,0.00,0.0,WeatherDisplay:10.37,2013-07-10 10:51:00,
2013-07-10 03:56:00,52.1,49.6,29.94,NE,38,0.0,0.0,91,0.00,,,0.00,0.0,WeatherDisplay:10.37,2013-07-10 10:56:00,
2013-07-10 04:01:00,52.0,50.3,29.94,NE,38,0.0,0.0,94,0.00,,,0.00,0.0,WeatherDisplay:10.37,2013-07-10 11:01:00,
2013-07-10 04:06:00,52.0,50.3,29.94,NE,38,0.0,0.0,94,0.00,,,0.00,0.0,WeatherDisplay:10.37,2013-07-10 11:06:00,
2013-07-10 04:11:00,52.0,49.5,29.94,NE,38,0.0,0.0,91,0.00,,,0.00,0.0,WeatherDisplay:10.37,2013-07-10 11:11:00,
2013-07-10 04:16:00,52.1,49.6,29.94,NE,38,0.5,2.3,91,0.00,,,0.00,0.0,WeatherDisplay:10.37,2013-07-10 11:16:00,
2013-07-10 04:21:00,52.0,49.5,29.94,NE,38,0.0,1.2,91,0.00,,,0.00,0.0,WeatherDisplay:10.37,2013-07-10 11:21:00,
2013-07-10 04:26:00,52.0,49.5,29.94,NE,38,0.0,0.0,91,0.00,,,0.00,0.0,WeatherDisplay:10.37,2013-07-10 11:26:00,
2013-07-10 04:31:00,51.9,49.4,29.94,NE,38,0.0,0.0,91,0.00,,,0.00,0.0,WeatherDisplay:10.37,2013-07-10 11:31:00,
2013-07-10 04:36:00,51.8,49.3,29.94,NE,38,0.0,0.0,91,0.00,,,0.00,0.0,WeatherDisplay:10.37,2013-07-10 11:36:00,
2013-07-10 04:41:00,51.6,49.1,29.94,NE,38,0.0,0.0,91,0.00,,,0.00,0.0,WeatherDisplay:10.37,2013-07-10 11:41:00,
2013-07-10 04:46:00,51.5,49.0,29.94,NE,38,0.0,0.0,91,0.00,,,0.00,0.0,WeatherDisplay:10.37,2013-07-10 11:46:00,
2013-07-10 04:51:00,51.3,48.8,29.94,NE,38,0.0,0.0,91,0.00,,,0.00,0.0,WeatherDisplay:10.37,2013-07-10 11:51:00,
2013-07-10 04:56:00,51.2,48.7,29.94,NE,38,0.0,0.0,91,0.00,,,0.00,0.0,WeatherDisplay:10.37,2013-07-10 11:56:00,
2013-07-10 05:01:00,51.1,48.9,29.94,NE,38,0.0,0.0,92,0.00,,,0.00,0.0,WeatherDisplay:10.37,2013-07-10 12:01:00,
2013-07-10 05:06:00,51.0,48.8,29.94,NE,38,0.0,0.0,92,0.00,,,0.00,0.0,WeatherDisplay:10.37,2013-07-10 12:06:00,
2013-07-10 05:11:00,50.9,48.7,29.94,NE,38,0.0,0.0,92,0.00,,,0.00,0.0,WeatherDisplay:10.37,2013-07-10 12:11:00,
2013-07-10 05:16:00,50.8,48.6,29.94,NE,38,0.0,0.0,92,0.00,,,0.00,0.0,WeatherDisplay:10.37,2013-07-10 12:16:00,
2013-07-10 05:21:00,50.8,48.6,29.94,NE,38,0.0,0.0,92,0.00,,,0.00,0.0,WeatherDisplay:10.37,2013-07-10 12:21:00,
2013-07-10 05:26:00,50.8,48.6,29.95,NE,38,0.0,0.0,92,0.00,,,0.00,0.0,WeatherDisplay:10.37,2013-07-10 12:26:00,
2013-07-10 05:31:00,50.7,48.2,29.95,NE,38,0.0,0.0,91,0.00,,,0.00,0.0,WeatherDisplay:10.37,2013-07-10 12:31:00,
2013-07-10 05:36:00,50.7,48.5,29.95,NE,38,0.0,0.0,92,0.00,,,0.00,0.0,WeatherDisplay:10.37,2013-07-10 12:36:00,
2013-07-10 05:41:00,50.6,48.4,29.95,NE,38,0.0,0.0,92,0.00,,,0.00,0.0,WeatherDisplay:10.37,2013-07-10 12:41:00,
2013-07-10 05:46:00,50.7,48.5,29.95,NE,38,0.0,0.0,92,0.00,,,0.00,0.0,WeatherDisplay:10.37,2013-07-10 12:46:00,
2013-07-10 05:51:00,50.6,48.4,29.95,NE,38,0.0,0.0,92,0.00,,,0.00,0.0,WeatherDisplay:10.37,2013-07-10 12:51:00,
2013-07-10 05:56:00,50.6,48.4,29.95,NE,38,0.0,0.0,92,0.00,,,0.00,0.0,WeatherDisplay:10.37,2013-07-10 12:56:00,
2013-07-10 06:01:00,50.6,48.4,29.95,NE,38,0.0,0.0,92,0.00,,,0.00,5.0,WeatherDisplay:10.37,2013-07-10 13:01:00,
2013-07-10 06:06:00,50.6,48.1,29.95,NE,38,0.0,0.0,91,0.00,,,0.00,7.0,WeatherDisplay:10.37,2013-07-10 13:06:00,
2013-07-10 06:11:00,48.5,46.0,29.95,West,269,0.0,0.0,91,0.00,,,0.00,0.0,WeatherDisplay:10.37,2013-07-10 13:11:00,
2013-07-10 06:16:00,48.4,45.9,29.95,West,269,0.0,0.0,91,0.00,,,0.00,0.0,WeatherDisplay:10.37,2013-07-10 13:16:00,
2013-07-10 06:21:00,48.2,45.7,29.96,West,269,0.0,0.0,91,0.00,,,0.00,0.0,WeatherDisplay:10.37,2013-07-10 13:21:00,
2013-07-10 06:26:00,48.2,45.7,29.96,West,269,0.0,0.0,91,0.00,,,0.00,0.0,WeatherDisplay:10.37,2013-07-10 13:26:00,
2013-07-10 06:31:00,48.2,45.7,29.96,West,269,0.0,0.0,91,0.00,,,0.00,0.0,WeatherDisplay:10.37,2013-07-10 13:31:00,
2013-07-10 06:36:00,48.4,45.9,29.95,West,269,0.0,0.0,91,0.00,,,0.00,0.0,WeatherDisplay:10.37,2013-07-10 13:36:00,
2013-07-10 06:41:00,49.0,46.8,29.95,West,269,0.0,0.0,92,0.00,,,0.00,0.0,WeatherDisplay:10.37,2013-07-10 13:41:00,
2013-07-10 06:46:00,49.3,47.4,29.95,West,269,0.0,0.0,93,0.00,,,0.00,0.0,WeatherDisplay:10.37,2013-07-10 13:46:00,
2013-07-10 06:51:00,49.9,48.0,29.95,West,269,0.0,0.0,93,0.00,,,0.00,0.0,WeatherDisplay:10.37,2013-07-10 13:51:00,
2013-07-10 06:56:00,50.3,48.4,29.95,West,269,0.0,0.0,93,0.00,,,0.00,0.0,WeatherDisplay:10.37,2013-07-10 13:56:00,
2013-07-10 07:01:00,50.8,48.8,29.95,West,269,0.0,0.0,93,0.00,OVC,,0.00,0.0,WeatherDisplay:10.37,2013-07-10 14:01:00,
2013-07-10 07:06:00,51.1,49.4,29.95,West,269,0.1,1.2,94,0.00,OVC,,0.00,0.0,WeatherDisplay:10.37,2013-07-10 14:06:00,
2013-07-10 07:11:00,51.3,49.6,29.95,West,269,0.0,0.0,94,0.00,OVC,,0.00,0.0,WeatherDisplay:10.37,2013-07-10 14:11:00,
2013-07-10 07:16:00,51.5,49.5,29.95,West,269,0.0,0.0,93,0.00,OVC,,0.00,0.0,WeatherDisplay:10.37,2013-07-10 14:16:00,
2013-07-10 07:21:00,51.6,49.6,29.96,West,269,0.0,0.0,93,0.00,OVC,,0.00,0.0,WeatherDisplay:10.37,2013-07-10 14:21:00,
2013-07-10 07:26:00,51.8,49.8,29.96,West,269,0.0,0.0,93,0.00,OVC,,0.00,0.0,WeatherDisplay:10.37,2013-07-10 14:26:00,
2013-07-10 07:31:00,51.9,49.9,29.96,West,269,0.0,0.0,93,0.00,OVC,,0.00,0.0,WeatherDisplay:10.37,2013-07-10 14:31:00,
2013-07-10 07:36:00,52.2,50.2,29.96,West,269,0.0,0.0,93,0.00,OVC,,0.00,0.0,WeatherDisplay:10.37,2013-07-10 14:36:00,
2013-07-10 07:41:00,52.7,50.7,29.96,West,269,0.0,0.0,93,0.00,OVC,,0.00,0.0,WeatherDisplay:10.37,2013-07-10 14:41:00,
2013-07-10 07:46:00,53.0,51.0,29.96,West,269,0.0,0.0,93,0.00,OVC,,0.00,0.0,WeatherDisplay:10.37,2013-07-10 14:46:00,
2013-07-10 07:51:00,53.3,51.3,29.96,West,269,0.0,0.0,93,0.00,OVC,,0.00,0.0,WeatherDisplay:10.37,2013-07-10 14:51:00,
2013-07-10 07:56:00,53.6,51.0,29.96,West,269,0.6,2.3,91,0.00,OVC,,0.00,0.0,WeatherDisplay:10.37,2013-07-10 14:56:00,
2013-07-10 08:01:00,54.3,51.1,29.96,West,269,0.0,0.0,89,0.00,OVC,,0.00,0.0,WeatherDisplay:10.37,2013-07-10 15:01:00,
2013-07-10 08:06:00,54.7,51.2,29.96,West,280,0.2,1.2,88,0.00,OVC,,0.00,0.0,WeatherDisplay:10.37,2013-07-10 15:06:00,
2013-07-10 08:11:00,56.0,51.6,29.96,West,280,0.2,1.2,85,0.00,OVC,,0.00,0.0,WeatherDisplay:10.37,2013-07-10 15:11:00,
2013-07-10 08:16:00,57.2,52.4,29.96,West,281,0.8,3.5,84,0.00,OVC,,0.00,0.0,WeatherDisplay:10.37,2013-07-10 15:16:00,
2013-07-10 08:21:00,58.1,51.6,29.96,WNW,287,0.9,3.5,79,0.00,OVC,,0.00,0.0,WeatherDisplay:10.37,2013-07-10 15:21:00,
2013-07-10 08:26:00,59.6,52.4,29.96,WNW,287,2.0,2.3,77,0.00,OVC,,0.00,0.0,WeatherDisplay:10.37,2013-07-10 15:26:00,
2013-07-10 08:31:00,57.3,50.1,29.96,NE,38,1.5,2.3,77,0.00,OVC,,0.00,0.0,WeatherDisplay:10.37,2013-07-10 15:31:00,
2013-07-10 08:36:00,58.2,52.7,29.96,NE,38,0.4,3.5,82,0.00,CLR,,0.00,376.0,WeatherDisplay:10.37,2013-07-10 15:36:00,
2013-07-10 08:41:00,58.4,52.6,29.96,NE,38,0.3,3.5,81,0.00,CLR,,0.00,469.0,WeatherDisplay:10.37,2013-07-10 15:41:00,
2013-07-10 08:46:00,59.1,52.6,29.96,NE,38,2.1,4.6,79,0.00,CLR,,0.00,487.0,WeatherDisplay:10.37,2013-07-10 15:46:00,
2013-07-10 08:51:00,59.8,52.9,29.96,NE,38,2.3,3.5,78,0.00,CLR,,0.00,504.0,WeatherDisplay:10.37,2013-07-10 15:51:00,
2013-07-10 08:56:00,59.9,53.0,29.96,NE,38,1.7,3.5,78,0.00,CLR,,0.00,522.0,WeatherDisplay:10.37,2013-07-10 15:56:00,
2013-07-10 09:01:00,60.3,53.1,29.96,NE,38,1.6,4.6,77,0.00,CLR,,0.00,538.0,WeatherDisplay:10.37,2013-07-10 16:01:00,
2013-07-10 09:06:00,60.0,52.8,29.96,NE,38,1.1,3.5,77,0.00,CLR,,0.00,554.0,WeatherDisplay:10.37,2013-07-10 16:06:00,
2013-07-10 09:11:00,60.4,53.2,29.96,NE,38,0.9,3.5,77,0.00,CLR,,0.00,573.0,WeatherDisplay:10.37,2013-07-10 16:11:00,
2013-07-10 09:16:00,60.5,52.9,29.95,NE,38,1.5,3.5,76,0.00,CLR,,0.00,591.0,WeatherDisplay:10.37,2013-07-10 16:16:00,
2013-07-10 09:21:00,61.1,52.7,29.95,NE,38,1.1,2.3,74,0.00,CLR,,0.00,605.0,WeatherDisplay:10.37,2013-07-10 16:21:00,
2013-07-10 09:26:00,60.5,53.3,29.95,NE,38,0.1,1.0,77,0.00,CLR,,0.00,619.0,WeatherDisplay:10.37,2013-07-10 16:26:00,
2013-07-10 09:31:00,61.0,53.0,29.95,NE,38,1.2,2.3,75,0.00,CLR,,0.00,635.0,WeatherDisplay:10.37,2013-07-10 16:31:00,
2013-07-10 09:36:00,62.0,53.6,29.95,NE,38,2.3,3.5,74,0.00,CLR,,0.00,650.0,WeatherDisplay:10.37,2013-07-10 16:36:00,
2013-07-10 09:41:00,62.8,54.0,29.95,NE,38,2.6,3.5,73,0.00,CLR,,0.00,668.0,WeatherDisplay:10.37,2013-07-10 16:41:00,
2013-07-10 09:46:00,61.8,53.1,29.95,NE,38,2.5,3.5,73,0.00,CLR,,0.00,680.0,WeatherDisplay:10.37,2013-07-10 16:46:00,
2013-07-10 09:51:00,61.4,53.8,29.95,NE,38,1.7,3.5,76,0.00,CLR,,0.00,668.0,WeatherDisplay:10.37,2013-07-10 16:51:00,
2013-07-10 09:56:00,62.7,54.3,29.94,NE,54,3.7,3.7,74,0.00,CLR,,0.00,710.0,WeatherDisplay:10.37,2013-07-10 16:56:00,
2013-07-10 10:01:00,62.7,54.3,29.94,NE,56,0.8,2.3,74,0.00,CLR,,0.00,724.0,WeatherDisplay:10.37,2013-07-10 17:01:00,
2013-07-10 10:06:00,62.9,54.1,29.94,NE,56,1.8,3.5,73,0.00,CLR,,0.00,737.0,WeatherDisplay:10.37,2013-07-10 17:06:00,
2013-07-10 10:11:00,63.6,54.0,29.94,NE,56,1.3,3.5,71,0.00,CLR,,0.00,747.0,WeatherDisplay:10.37,2013-07-10 17:11:00,
2013-07-10 10:16:00,65.2,55.2,29.94,NE,56,2.1,3.5,70,0.00,CLR,,0.00,763.0,WeatherDisplay:10.37,2013-07-10 17:16:00,
2013-07-10 10:21:00,64.1,53.7,29.94,East,83,5.8,6.9,69,0.00,CLR,,0.00,779.0,WeatherDisplay:10.37,2013-07-10 17:21:00,
2013-07-10 10:26:00,64.1,54.5,29.94,East,88,3.4,4.6,71,0.00,CLR,,0.00,789.0,WeatherDisplay:10.37,2013-07-10 17:26:00,
2013-07-10 10:31:00,64.7,55.1,29.94,East,88,1.5,3.0,71,0.00,CLR,,0.00,800.0,WeatherDisplay:10.37,2013-07-10 17:31:00,
2013-07-10 10:36:00,66.5,55.6,29.94,East,88,0.5,1.2,68,0.00,CLR,,0.00,814.0,WeatherDisplay:10.37,2013-07-10 17:36:00,
2013-07-10 10:41:00,65.7,54.8,29.93,East,88,0.7,2.3,68,0.00,CLR,,0.00,826.0,WeatherDisplay:10.37,2013-07-10 17:41:00,
2013-07-10 10:46:00,66.3,55.0,29.93,East,88,1.8,4.6,67,0.00,CLR,,0.00,837.0,WeatherDisplay:10.37,2013-07-10 17:46:00,
2013-07-10 10:51:00,67.4,55.6,29.94,East,88,2.2,3.5,66,0.00,CLR,,0.00,847.0,WeatherDisplay:10.37,2013-07-10 17:51:00,
2013-07-10 10:56:00,66.8,55.5,29.94,East,96,4.9,8.1,67,0.00,CLR,,0.00,831.0,WeatherDisplay:10.37,2013-07-10 17:56:00,
2013-07-10 11:01:00,65.6,55.2,29.94,East,98,1.3,5.8,69,0.00,CLR,,0.00,851.0,WeatherDisplay:10.37,2013-07-10 18:01:00,
2013-07-10 11:06:00,65.3,55.3,29.94,ESE,105,2.5,3.5,70,0.00,CLR,,0.00,838.0,WeatherDisplay:10.37,2013-07-10 18:06:00,
2013-07-10 11:11:00,66.2,55.7,29.94,SE,143,3.9,6.9,69,0.00,CLR,,0.00,849.0,WeatherDisplay:10.37,2013-07-10 18:11:00,
2013-07-10 11:16:00,65.7,55.2,29.94,South,173,4.6,8.1,69,0.00,CLR,,0.00,896.0,WeatherDisplay:10.37,2013-07-10 18:16:00,
2013-07-10 11:21:00,66.0,55.5,29.93,SE,137,3.0,3.5,69,0.00,CLR,,0.00,867.0,WeatherDisplay:10.37,2013-07-10 18:21:00,
2013-07-10 11:26:00,67.1,55.8,29.93,SSE,159,2.4,3.5,67,0.00,CLR,,0.00,919.0,WeatherDisplay:10.37,2013-07-10 18:26:00,
2013-07-10 11:31:00,68.6,56.4,29.93,SSE,159,0.8,2.3,65,0.00,CLR,,0.00,928.0,WeatherDisplay:10.37,2013-07-10 18:31:00,
2013-07-10 11:36:00,68.7,56.0,29.93,SSE,149,3.3,5.8,64,0.00,CLR,,0.00,898.0,WeatherDisplay:10.37,2013-07-10 18:36:00,
2013-07-10 11:41:00,69.0,56.3,29.93,SE,144,3.5,4.6,64,0.00,CLR,,0.00,907.0,WeatherDisplay:10.37,2013-07-10 18:41:00,
2013-07-10 11:46:00,69.2,56.5,29.93,SSE,164,3.4,8.1,64,0.00,CLR,,0.00,914.0,WeatherDisplay:10.37,2013-07-10 18:46:00,
2013-07-10 11:51:00,68.4,56.6,29.93,ESE,123,1.5,3.5,66,0.00,CLR,,0.00,947.0,WeatherDisplay:10.37,2013-07-10 18:51:00,
2013-07-10 11:56:00,68.5,56.3,29.93,SE,134,4.0,4.6,65,0.00,CLR,,0.00,954.0,WeatherDisplay:10.37,2013-07-10 18:56:00,
2013-07-10 12:01:00,68.0,55.8,29.93,South,175,4.4,5.8,65,0.00,CLR,,0.00,974.0,WeatherDisplay:10.37,2013-07-10 19:01:00,
2013-07-10 12:06:00,68.4,56.2,29.93,SE,129,3.9,8.1,65,0.00,CLR,,0.00,939.0,WeatherDisplay:10.37,2013-07-10 19:06:00,
2013-07-10 12:11:00,69.3,56.6,29.93,SE,128,3.5,4.6,64,0.00,CLR,,0.00,949.0,WeatherDisplay:10.37,2013-07-10 19:11:00,
2013-07-10 12:17:00,69.8,56.6,29.93,SE,139,1.3,3.5,63,0.00,CLR,,0.00,998.0,WeatherDisplay:10.37,2013-07-10 19:17:00,
2013-07-10 12:22:00,71.1,57.4,29.93,SE,139,1.0,2.3,62,0.00,CLR,,0.00,981.0,WeatherDisplay:10.37,2013-07-10 19:22:00,
2013-07-10 12:27:00,72.5,57.4,29.92,SE,139,2.1,2.3,59,0.00,CLR,,0.00,995.0,WeatherDisplay:10.37,2013-07-10 19:27:00,
2013-07-10 12:32:00,71.6,57.0,29.93,SE,138,0.9,2.3,60,0.00,CLR,,0.00,963.0,WeatherDisplay:10.37,2013-07-10 19:32:00,
2013-07-10 12:37:00,72.7,57.1,29.93,SE,145,3.8,5.8,58,0.00,CLR,,0.00,1009.0,WeatherDisplay:10.37,2013-07-10 19:37:00,
2013-07-10 12:42:00,72.1,57.4,29.92,SSE,151,2.6,3.5,60,0.00,CLR,,0.00,1011.0,WeatherDisplay:10.37,2013-07-10 19:42:00,
2013-07-10 12:47:00,71.7,57.1,29.92,SSE,148,2.4,3.5,60,0.00,CLR,,0.00,1013.0,WeatherDisplay:10.37,2013-07-10 19:47:00,
2013-07-10 12:52:00,72.8,57.2,29.92,SSE,148,2.3,3.5,58,0.00,CLR,,0.00,1016.0,WeatherDisplay:10.37,2013-07-10 19:52:00,
2013-07-10 12:57:00,72.6,57.4,29.92,SE,144,1.3,2.3,59,0.00,CLR,,0.00,1013.0,WeatherDisplay:10.37,2013-07-10 19:57:00,
2013-07-10 13:02:00,73.9,57.2,29.92,SE,144,1.5,2.3,56,0.00,CLR,,0.00,1025.0,WeatherDisplay:10.37,2013-07-10 20:02:00,
2013-07-10 13:07:00,73.9,57.2,29.92,SE,135,2.9,6.9,56,0.00,CLR,,0.00,1027.0,WeatherDisplay:10.37,2013-07-10 20:07:00,
2013-07-10 13:12:00,72.3,56.2,29.92,SE,129,3.8,8.1,57,0.00,CLR,,0.00,1025.0,WeatherDisplay:10.37,2013-07-10 20:12:00,
2013-07-10 13:17:00,70.3,55.3,29.92,SE,136,4.7,9.2,59,0.00,CLR,,0.00,1023.0,WeatherDisplay:10.37,2013-07-10 20:17:00,
2013-07-10 13:22:00,70.2,55.7,29.92,SSE,157,4.2,6.9,60,0.00,CLR,,0.00,1023.0,WeatherDisplay:10.37,2013-07-10 20:22:00,
2013-07-10 13:27:00,70.5,55.0,29.92,SE,133,5.3,8.1,58,0.00,CLR,,0.00,1021.0,WeatherDisplay:10.37,2013-07-10 20:27:00,
2013-07-10 13:32:00,70.7,56.1,29.91,SSE,150,2.9,3.5,60,0.00,CLR,,0.00,1020.0,WeatherDisplay:10.37,2013-07-10 20:32:00,
2013-07-10 13:37:00,72.7,56.6,29.91,SSE,147,0.8,3.5,57,0.00,CLR,,0.00,1030.0,WeatherDisplay:10.37,2013-07-10 20:37:00,
2013-07-10 13:42:00,74.4,57.2,29.91,SSE,153,1.7,3.5,55,0.00,CLR,,0.00,1021.0,WeatherDisplay:10.37,2013-07-10 20:42:00,
2013-07-10 13:47:00,75.2,57.4,29.91,South,169,2.2,3.5,54,0.00,CLR,,0.00,1020.0,WeatherDisplay:10.37,2013-07-10 20:47:00,
2013-07-10 13:52:00,75.2,57.4,29.91,South,190,3.0,6.9,54,0.00,CLR,,0.00,1016.0,WeatherDisplay:10.37,2013-07-10 20:52:00,
2013-07-10 13:57:00,75.5,57.7,29.90,South,187,3.4,4.6,54,0.00,CLR,,0.00,1009.0,WeatherDisplay:10.37,2013-07-10 20:57:00,
2013-07-10 14:02:00,75.9,57.5,29.90,South,184,4.7,8.1,53,0.00,CLR,,0.00,1002.0,WeatherDisplay:10.37,2013-07-10 21:02:00,
2013-07-10 14:07:00,76.2,57.8,29.90,South,186,3.2,3.5,53,0.00,CLR,,0.00,1002.0,WeatherDisplay:10.37,2013-07-10 21:07:00,
2013-07-10 14:12:00,76.7,57.7,29.90,South,188,2.6,5.8,52,0.00,CLR,,0.00,997.0,WeatherDisplay:10.37,2013-07-10 21:12:00,
2013-07-10 14:17:00,78.2,58.6,29.90,South,188,1.4,1.4,51,0.00,CLR,,0.00,995.0,WeatherDisplay:10.37,2013-07-10 21:17:00,
2013-07-10 14:22:00,79.2,57.8,29.90,SE,131,2.7,4.6,48,0.00,CLR,,0.00,991.0,WeatherDisplay:10.37,2013-07-10 21:22:00,
2013-07-10 14:27:00,77.3,56.1,29.90,SE,133,3.4,4.0,48,0.00,CLR,,0.00,990.0,WeatherDisplay:10.37,2013-07-10 21:27:00,
2013-07-10 14:32:00,75.8,55.3,29.90,ESE,118,2.4,4.6,49,0.00,CLR,,0.00,983.0,WeatherDisplay:10.37,2013-07-10 21:32:00,
2013-07-10 14:37:00,76.5,55.9,29.89,South,173,2.9,3.5,49,0.00,CLR,,0.00,981.0,WeatherDisplay:10.37,2013-07-10 21:37:00,
2013-07-10 14:42:00,76.6,56.0,29.89,SSE,166,0.8,3.5,49,0.00,CLR,,0.00,974.0,WeatherDisplay:10.37,2013-07-10 21:42:00,
2013-07-10 14:47:00,76.4,55.3,29.89,SSE,159,4.1,5.8,48,0.00,CLR,,0.00,967.0,WeatherDisplay:10.37,2013-07-10 21:47:00,
2013-07-10 14:52:00,76.1,55.0,29.89,SE,134,3.9,5.8,48,0.00,CLR,,0.00,958.0,WeatherDisplay:10.37,2013-07-10 21:52:00,
2013-07-10 14:57:00,74.9,55.6,29.89,SSE,161,3.5,4.6,51,0.00,CLR,,0.00,951.0,WeatherDisplay:10.37,2013-07-10 21:57:00,
2013-07-10 15:02:00,74.4,54.0,29.89,SSW,202,5.8,9.2,49,0.00,CLR,,0.00,939.0,WeatherDisplay:10.37,2013-07-10 22:02:00,
2013-07-10 15:07:00,74.3,53.9,29.89,SSW,201,8.6,11.5,49,0.00,CLR,,0.00,923.0,WeatherDisplay:10.37,2013-07-10 22:07:00,
2013-07-10 15:12:00,74.1,53.7,29.89,SSW,211,5.5,8.1,49,0.00,CLR,,0.00,918.0,WeatherDisplay:10.37,2013-07-10 22:12:00,
2013-07-10 15:17:00,74.2,53.2,29.89,SSW,200,6.5,6.9,48,0.00,CLR,,0.00,909.0,WeatherDisplay:10.37,2013-07-10 22:17:00,
2013-07-10 15:22:00,73.3,53.0,29.89,SSW,195,3.6,12.7,49,0.00,CLR,,0.00,900.0,WeatherDisplay:10.37,2013-07-10 22:22:00,
2013-07-10 15:27:00,74.2,53.8,29.89,SSW,195,4.7,6.9,49,0.00,CLR,,0.00,888.0,WeatherDisplay:10.37,2013-07-10 22:27:00,
2013-07-10 15:32:00,74.4,52.9,29.88,South,183,2.8,5.8,47,0.00,CLR,,0.00,877.0,WeatherDisplay:10.37,2013-07-10 22:32:00,
2013-07-10 15:37:00,74.5,52.4,29.88,SSW,195,3.3,4.6,46,0.00,CLR,,0.00,870.0,WeatherDisplay:10.37,2013-07-10 22:37:00,
2013-07-10 15:42:00,75.4,53.2,29.88,South,183,2.4,5.8,46,0.00,CLR,,0.00,860.0,WeatherDisplay:10.37,2013-07-10 22:42:00,
2013-07-10 15:47:00,75.4,52.6,29.88,South,182,4.4,6.9,45,0.00,CLR,,0.00,849.0,WeatherDisplay:10.37,2013-07-10 22:47:00,
2013-07-10 15:53:00,75.5,53.3,29.88,South,190,4.0,6.9,46,0.00,CLR,,0.00,831.0,WeatherDisplay:10.37,2013-07-10 22:53:00,
2013-07-10 15:58:00,75.4,52.6,29.87,South,182,4.0,6.9,45,0.00,CLR,,0.00,823.0,WeatherDisplay:10.37,2013-07-10 22:58:00,
2013-07-10 16:03:00,75.0,52.2,29.87,SSW,200,4.9,9.2,45,0.00,CLR,,0.00,810.0,WeatherDisplay:10.37,2013-07-10 23:03:00,
2013-07-10 16:08:00,75.2,53.0,29.87,SSW,202,3.8,6.9,46,0.00,CLR,,0.00,796.0,WeatherDisplay:10.37,2013-07-10 23:08:00,
2013-07-10 16:13:00,76.4,53.5,29.87,South,190,1.6,3.5,45,0.00,CLR,,0.00,784.0,WeatherDisplay:10.37,2013-07-10 23:13:00,
2013-07-10 16:19:00,76.7,53.1,29.87,SSW,205,3.7,5.8,44,0.00,CLR,,0.00,772.0,WeatherDisplay:10.37,2013-07-10 23:19:00,
2013-07-10 16:24:00,77.1,54.1,29.86,WSW,238,3.4,6.9,45,0.00,CLR,,0.00,758.0,WeatherDisplay:10.37,2013-07-10 23:24:00,
2013-07-10 16:29:00,76.7,53.8,29.86,SSW,199,6.3,10.4,45,0.00,CLR,,0.00,744.0,WeatherDisplay:10.37,2013-07-10 23:29:00,
2013-07-10 16:34:00,76.2,53.9,29.86,South,187,5.7,6.9,46,0.00,CLR,,0.00,726.0,WeatherDisplay:10.37,2013-07-10 23:34:00,
2013-07-10 16:39:00,76.4,52.9,29.86,SSW,209,5.0,10.0,44,0.00,CLR,,0.00,710.0,WeatherDisplay:10.37,2013-07-10 23:39:00,
2013-07-10 16:44:00,76.4,53.5,29.86,South,189,3.2,7.0,45,0.00,CLR,,0.00,698.0,WeatherDisplay:10.37,2013-07-10 23:44:00,
2013-07-10 16:49:00,76.2,53.9,29.86,South,186,2.2,3.5,46,0.00,CLR,,0.00,684.0,WeatherDisplay:10.37,2013-07-10 23:49:00,
2013-07-10 16:54:00,76.7,53.8,29.86,SSW,199,6.4,9.2,45,0.00,CLR,,0.00,668.0,WeatherDisplay:10.37,2013-07-10 23:54:00,
2013-07-10 16:59:00,77.0,54.0,29.86,SSW,203,2.9,6.9,45,0.00,CLR,,0.00,654.0,WeatherDisplay:10.37,2013-07-10 23:59:00,
2013-07-10 17:04:00,77.2,54.2,29.86,SSW,196,3.7,8.1,45,0.00,CLR,,0.00,640.0,WeatherDisplay:10.37,2013-07-11 00:04:00,
2013-07-10 17:09:00,76.1,53.8,29.86,South,186,5.7,5.8,46,0.00,CLR,,0.00,622.0,WeatherDisplay:10.37,2013-07-11 00:09:00,
2013-07-10 17:14:00,76.0,53.7,29.86,South,178,2.5,4.6,46,0.00,CLR,,0.00,605.0,WeatherDisplay:10.37,2013-07-11 00:14:00,
2013-07-10 17:19:00,75.6,52.8,29.86,South,183,4.0,9.2,45,0.00,CLR,,0.00,591.0,WeatherDisplay:10.37,2013-07-11 00:19:00,
2013-07-10 17:24:00,75.1,54.1,29.85,South,171,3.2,4.6,48,0.00,CLR,,0.00,577.0,WeatherDisplay:10.37,2013-07-11 00:24:00,
2013-07-10 17:29:00,74.5,54.1,29.85,SE,128,4.0,4.0,49,0.00,CLR,,0.00,559.0,WeatherDisplay:10.37,2013-07-11 00:29:00,
2013-07-10 17:34:00,72.8,54.1,29.86,SE,132,3.7,6.9,52,0.00,CLR,,0.00,541.0,WeatherDisplay:10.37,2013-07-11 00:34:00,
2013-07-10 17:39:00,71.4,53.9,29.85,SE,131,4.2,4.6,54,0.00,CLR,,0.00,524.0,WeatherDisplay:10.37,2013-07-11 00:39:00,
2013-07-10 17:44:00,69.5,53.6,29.85,SE,141,5.2,6.0,57,0.00,CLR,,0.00,504.0,WeatherDisplay:10.37,2013-07-11 00:44:00,
2013-07-10 17:49:00,68.2,53.8,29.85,SE,129,5.2,5.2,60,0.00,CLR,,0.00,489.0,WeatherDisplay:10.37,2013-07-11 00:49:00,
2013-07-10 17:54:00,67.5,54.0,29.85,SE,136,3.8,4.6,62,0.00,CLR,,0.00,471.0,WeatherDisplay:10.37,2013-07-11 00:54:00,
2013-07-10 17:59:00,67.4,53.9,29.86,SE,146,2.9,3.5,62,0.00,CLR,,0.00,454.0,WeatherDisplay:10.37,2013-07-11 00:59:00,
2013-07-10 18:04:00,66.7,53.3,29.86,ESE,120,4.7,5.8,62,0.00,CLR,,0.00,434.0,WeatherDisplay:10.37,2013-07-11 01:04:00,
2013-07-10 18:09:00,66.5,53.9,29.86,SSE,148,1.9,3.0,64,0.00,CLR,,0.00,420.0,WeatherDisplay:10.37,2013-07-11 01:09:00,
2013-07-10 18:14:00,67.5,54.5,29.86,South,183,1.3,5.8,63,0.00,FEW,,0.00,403.0,WeatherDisplay:10.37,2013-07-11 01:14:00,
2013-07-10 18:19:00,69.2,54.7,29.86,SSE,168,1.2,3.5,60,0.00,FEW,,0.00,385.0,WeatherDisplay:10.37,2013-07-11 01:19:00,
2013-07-10 18:24:00,69.3,54.4,29.86,SSW,193,2.8,4.6,59,0.00,FEW,,0.00,366.0,WeatherDisplay:10.37,2013-07-11 01:24:00,
2013-07-10 18:29:00,69.3,54.4,29.86,South,188,1.1,2.3,59,0.00,FEW,,0.00,352.0,WeatherDisplay:10.37,2013-07-11 01:29:00,
2013-07-10 18:34:00,69.1,54.6,29.86,South,182,2.2,3.5,60,0.00,FEW,,0.00,332.0,WeatherDisplay:10.37,2013-07-11 01:34:00,
2013-07-10 18:39:00,68.6,54.2,29.86,South,185,1.3,1.3,60,0.00,FEW,,0.00,315.0,WeatherDisplay:10.37,2013-07-11 01:39:00,
2013-07-10 18:44:00,67.7,53.8,29.86,SSE,153,1.6,2.3,61,0.00,FEW,,0.00,294.0,WeatherDisplay:10.37,2013-07-11 01:44:00,
2013-07-10 18:49:00,66.3,53.3,29.86,SSE,157,2.8,3.5,63,0.00,FEW,,0.00,278.0,WeatherDisplay:10.37,2013-07-11 01:49:00,
2013-07-10 18:54:00,64.9,52.8,29.86,SSE,162,2.5,3.5,65,0.00,FEW,,0.00,262.0,WeatherDisplay:10.37,2013-07-11 01:54:00,
2013-07-10 19:00:00,63.9,53.1,29.86,SSE,155,0.9,3.5,68,0.00,FEW,,0.00,239.0,WeatherDisplay:10.37,2013-07-11 02:00:00,
2013-07-10 19:05:00,64.1,53.3,29.86,SSE,154,1.4,2.3,68,0.00,SCT,,0.00,214.0,WeatherDisplay:10.37,2013-07-11 02:05:00,
2013-07-10 19:10:00,64.3,53.5,29.86,SSE,155,0.8,2.3,68,0.00,SCT,,0.00,197.0,WeatherDisplay:10.37,2013-07-11 02:10:00,
2013-07-10 19:15:00,64.0,53.2,29.87,SSE,152,1.1,2.3,68,0.00,SCT,,0.00,179.0,WeatherDisplay:10.37,2013-07-11 02:15:00,
2013-07-10 19:20:00,63.3,52.6,29.87,SSE,153,1.8,3.5,68,0.00,SCT,,0.00,158.0,WeatherDisplay:10.37,2013-07-11 02:20:00,
2013-07-10 19:25:00,62.5,52.6,29.87,SSE,152,0.2,1.2,70,0.00,BKN,,0.00,21.0,WeatherDisplay:10.37,2013-07-11 02:25:00,
2013-07-10 19:30:00,62.9,53.4,29.87,SSE,153,0.0,0.0,71,0.00,BKN,,0.00,21.0,WeatherDisplay:10.37,2013-07-11 02:30:00,
2013-07-10 19:36:00,63.2,52.9,29.87,SSE,153,1.0,4.0,69,0.00,BKN,,0.00,19.0,WeatherDisplay:10.37,2013-07-11 02:36:00,
2013-07-10 19:41:00,63.2,52.9,29.87,SSE,152,0.2,2.0,69,0.00,BKN,,0.00,18.0,WeatherDisplay:10.37,2013-07-11 02:41:00,
2013-07-10 19:46:00,63.1,52.8,29.87,SSE,153,0.7,0.0,69,0.00,BKN,,0.00,16.0,WeatherDisplay:10.37,2013-07-11 02:46:00,
2013-07-10 19:51:00,62.7,52.4,29.87,SSE,152,1.2,2.3,69,0.00,BKN,,0.00,16.0,WeatherDisplay:10.37,2013-07-11 02:51:00,
2013-07-10 19:56:00,62.0,52.1,29.88,SSE,157,1.2,2.3,70,0.00,BKN,,0.00,14.0,WeatherDisplay:10.37,2013-07-11 02:56:00,
2013-07-10 20:01:00,61.5,52.0,29.88,SSE,158,0.3,2.3,71,0.00,BKN,,0.00,12.0,WeatherDisplay:10.37,2013-07-11 03:01:00,
2013-07-10 20:06:00,61.1,52.0,29.88,SSE,157,0.1,1.2,72,0.00,BKN,,0.00,12.0,WeatherDisplay:10.37,2013-07-11 03:06:00,
2013-07-10 20:11:00,60.6,51.9,29.88,SSE,157,0.0,0.0,73,0.00,BKN,,0.00,11.0,WeatherDisplay:10.37,2013-07-11 03:11:00,
2013-07-10 20:16:00,60.3,52.0,29.88,SSE,158,0.2,1.2,74,0.00,BKN,,0.00,9.0,WeatherDisplay:10.37,2013-07-11 03:16:00,
2013-07-10 20:21:00,59.8,51.5,29.88,SSE,157,0.7,1.2,74,0.00,BKN,,0.00,7.0,WeatherDisplay:10.37,2013-07-11 03:21:00,
2013-07-10 20:26:00,59.5,51.6,29.88,SSE,158,0.3,1.2,75,0.00,BKN,,0.00,7.0,WeatherDisplay:10.37,2013-07-11 03:26:00,
2013-07-10 20:31:00,59.2,51.6,29.89,SSE,158,0.0,0.0,76,0.00,BKN,,0.00,5.0,WeatherDisplay:10.37,2013-07-11 03:31:00,
2013-07-10 20:36:00,58.9,51.7,29.89,SSE,158,0.0,0.0,77,0.00,,,0.00,0.0,WeatherDisplay:10.37,2013-07-11 03:36:00,
2013-07-10 20:41:00,58.8,51.6,29.89,SSE,158,0.0,0.0,77,0.00,,,0.00,0.0,WeatherDisplay:10.37,2013-07-11 03:41:00,
2013-07-10 20:46:00,58.4,51.2,29.89,SSE,158,0.0,0.0,77,0.00,,,0.00,0.0,WeatherDisplay:10.37,2013-07-11 03:46:00,
2013-07-10 20:51:00,57.7,50.9,29.89,SSE,158,0.0,0.0,78,0.00,,,0.00,0.0,WeatherDisplay:10.37,2013-07-11 03:51:00,
2013-07-10 20:56:00,57.4,50.9,29.89,SSE,158,0.0,0.0,79,0.00,,,0.00,0.0,WeatherDisplay:10.37,2013-07-11 03:56:00,
2013-07-10 21:01:00,57.0,50.9,29.89,SSE,157,0.0,0.0,80,0.00,,,0.00,0.0,WeatherDisplay:10.37,2013-07-11 04:01:00,
2013-07-10 21:03:00,57.1,51.0,29.89,SSE,158,0.0,0.0,80,0.00,,,0.00,0.0,WeatherDisplay:10.37,2013-07-11 04:03:00,
2013-07-10 21:04:00,57.0,50.9,29.89,SSE,158,0.0,0.0,80,0.00,,,0.00,0.0,WeatherDisplay:10.37,2013-07-11 04:04:00,
2013-07-10 21:07:00,57.0,50.9,29.89,SSE,158,0.0,0.0,80,0.00,,,0.00,0.0,WeatherDisplay:10.37,2013-07-11 04:07:00,
2013-07-10 21:12:00,56.8,51.0,29.89,SSE,157,0.0,0.0,81,0.00,,,0.00,0.0,WeatherDisplay:10.37,2013-07-11 04:12:00,
2013-07-10 21:16:00,56.5,50.7,29.89,SSE,158,0.2,0.0,81,0.00,,,0.00,0.0,WeatherDisplay:10.37,2013-07-11 04:16:00,
2013-07-10 21:21:00,56.3,50.9,29.90,SSE,158,0.0,0.0,82,0.00,,,0.00,0.0,WeatherDisplay:10.37,2013-07-11 04:21:00,
2013-07-10 21:26:00,56.1,50.7,29.90,SSE,158,3.7,4.6,82,0.00,,,0.00,0.0,WeatherDisplay:10.37,2013-07-11 04:26:00,
2013-07-10 21:31:00,56.0,50.6,29.90,SSE,158,1.1,3.5,82,0.00,,,0.00,0.0,WeatherDisplay:10.37,2013-07-11 04:31:00,
2013-07-10 21:36:00,55.8,50.1,29.90,SSE,158,1.7,3.5,81,0.00,,,0.00,0.0,WeatherDisplay:10.37,2013-07-11 04:36:00,
2013-07-10 21:41:00,55.4,50.0,29.90,SSE,158,0.1,1.2,82,0.00,,,0.00,0.0,WeatherDisplay:10.37,2013-07-11 04:41:00,
2013-07-10 21:46:00,54.9,49.5,29.91,SSE,158,1.4,3.5,82,0.00,,,0.00,0.0,WeatherDisplay:10.37,2013-07-11 04:46:00,
2013-07-10 21:51:00,54.5,49.4,29.91,SSE,157,0.4,2.3,83,0.00,,,0.00,0.0,WeatherDisplay:10.37,2013-07-11 04:51:00,
2013-07-10 21:56:00,54.3,49.6,29.91,SSE,158,0.0,1.2,84,0.00,,,0.00,0.0,WeatherDisplay:10.37,2013-07-11 04:56:00,
2013-07-10 22:01:00,54.1,49.4,29.91,SSE,158,0.0,0.0,84,0.00,,,0.00,0.0,WeatherDisplay:10.37,2013-07-11 05:01:00,
2013-07-10 22:06:00,54.0,49.3,29.91,SSE,157,0.6,2.3,84,0.00,,,0.00,0.0,WeatherDisplay:10.37,2013-07-11 05:06:00,
2013-07-10 22:11:00,53.7,49.3,29.91,SSE,158,0.1,2.3,85,0.00,,,0.00,0.0,WeatherDisplay:10.37,2013-07-11 05:11:00,
2013-07-10 22:16:00,53.7,49.3,29.92,SSE,159,0.0,0.0,85,0.00,,,0.00,0.0,WeatherDisplay:10.37,2013-07-11 05:16:00,
2013-07-10 22:21:00,53.7,49.3,29.92,SSE,158,0.6,1.2,85,0.00,,,0.00,0.0,WeatherDisplay:10.37,2013-07-11 05:21:00,
2013-07-10 22:26:00,53.6,49.2,29.92,West,265,0.8,2.3,85,0.00,,,0.00,0.0,WeatherDisplay:10.37,2013-07-11 05:26:00,
2013-07-10 22:31:00,53.5,49.4,29.92,West,265,0.3,1.2,86,0.00,,,0.00,0.0,WeatherDisplay:10.37,2013-07-11 05:31:00,
2013-07-10 22:36:00,53.4,49.3,29.92,West,265,0.0,0.0,86,0.00,,,0.00,0.0,WeatherDisplay:10.37,2013-07-11 05:36:00,
2013-07-10 22:41:00,53.3,49.2,29.92,West,265,0.9,2.3,86,0.00,,,0.00,0.0,WeatherDisplay:10.37,2013-07-11 05:41:00,
2013-07-10 22:46:00,53.3,49.2,29.92,West,263,0.0,2.0,86,0.00,,,0.00,0.0,WeatherDisplay:10.37,2013-07-11 05:46:00,
2013-07-10 22:51:00,53.2,49.1,29.92,West,263,0.1,1.2,86,0.00,,,0.00,0.0,WeatherDisplay:10.37,2013-07-11 05:51:00,
2013-07-10 22:56:00,53.0,48.9,29.92,West,263,0.3,0.0,86,0.00,,,0.00,0.0,WeatherDisplay:10.37,2013-07-11 05:56:00,
2013-07-10 23:01:00,52.9,48.8,29.92,West,263,0.0,0.0,86,0.00,,,0.00,0.0,WeatherDisplay:10.37,2013-07-11 06:01:00,
2013-07-10 23:06:00,52.7,48.9,29.92,West,263,0.0,1.2,87,0.00,,,0.00,0.0,WeatherDisplay:10.37,2013-07-11 06:06:00,
2013-07-10 23:11:00,52.5,48.7,29.92,West,263,0.2,2.3,87,0.00,,,0.00,0.0,WeatherDisplay:10.37,2013-07-11 06:11:00,
2013-07-10 23:16:00,52.4,48.6,29.92,West,263,1.1,2.3,87,0.00,,,0.00,0.0,WeatherDisplay:10.37,2013-07-11 06:16:00,
2013-07-10 23:21:00,52.3,48.5,29.92,West,263,0.2,2.3,87,0.00,,,0.00,0.0,WeatherDisplay:10.37,2013-07-11 06:21:00,
2013-07-10 23:26:00,52.2,48.8,29.92,West,263,0.4,1.2,88,0.00,,,0.00,0.0,WeatherDisplay:10.37,2013-07-11 06:26:00,
2013-07-10 23:31:00,52.1,48.7,29.92,West,263,0.0,0.0,88,0.00,,,0.00,0.0,WeatherDisplay:10.37,2013-07-11 06:31:00,
2013-07-10 23:36:00,52.1,48.7,29.92,West,263,0.1,1.2,88,0.00,,,0.00,0.0,WeatherDisplay:10.37,2013-07-11 06:36:00,
2013-07-10 23:41:00,51.9,48.5,29.92,West,263,0.4,2.0,88,0.00,,,0.00,0.0,WeatherDisplay:10.37,2013-07-11 06:41:00,
2013-07-10 23:46:00,51.9,48.5,29.92,West,263,0.3,1.2,88,0.00,,,0.00,0.0,WeatherDisplay:10.37,2013-07-11 06:46:00,
2013-07-10 23:51:00,51.9,48.5,29.92,West,263,0.0,1.2,88,0.00,,,0.00,0.0,WeatherDisplay:10.37,2013-07-11 06:51:00,
2013-07-10 23:56:00,51.8,48.4,29.92,West,263,0.7,2.3,88,0.00,,,0.00,0.0,WeatherDisplay:10.37,2013-07-11 06:56:00,